User: anonymous   Login
Location: Unspecified
(0.0000°N, 0.0000°E)
Time: 00:09:23
(UTC+00:00)
Language:

TDS 1 - Orbit

View from above orbital plane
View from above orbital plane
View from above satellite
View from above satellite

Ground track
Ground track

The orbit data is extracted from the following two-line orbital elements,

1 40076U 14037H   18112.60254385 +.00000052 +00000-0 +13980-4 0  9990
2 40076 098.3590 241.3983 0006454 147.8817 212.2792 14.81406736204830
Epoch (UTC): 22 April 2018 14:27:39
Eccentricity: 0.0006454
inclination: 98.3590°
perigee height: 620 km
apogee height: 629 km
right ascension of ascending node: 241.3983°
argument of perigee: 147.8817°
revolutions per day: 14.81406736
mean anomaly at epoch: 212.2792°
orbit number at epoch: 20483

The dashed part of the orbit path shows where the satellite is in the earth's shadow,  

DLR